Weather History for Boscobel, WI

Change the Weather History Date:

Saturday, February 18, 2012

  Actual Average (KPDC) Record (KPDC)
Temperature  
Mean Temperature 29 °F -  
Max Temperature 39 °F 35 °F 64 °F (1981)
Min Temperature 18 °F 19 °F -16 °F (2006)
Degree Days  
Heating Degree Days 36    
Moisture  
Dew Point 18 °F    
Average Humidity 64    
Maximum Humidity 88    
Minimum Humidity 33    
Precipitation  
Precipitation 0.00 in - - ()
Sea Level Pressure  
Sea Level Pressure 30.22 in    
Wind  
Wind Speed 3 mph (NNW)    
Max Wind Speed 7 mph    
Max Gust Speed -    
Visibility 9 miles    
Events      
Averages and records for this station are not official NWS values.
T = Trace of Precipitation, MM = Missing Value Source: NWS Daily Summary

Daily Weather History Graph

Daily Weather History Graph

Search for Another Location

Airport:

Trip Planner

Search our weather history database for the weather conditions in past years. The results will help you decide how hot, cold, wet, or windy it might be!

Date:

Astronomy

Feb. 18, 2012 Rise Set
Actual Time 6:56 AM CST 5:37 PM CST
Civil Twilight 6:27 AM CST 6:06 PM CST
Nautical Twilight 5:54 AM CST 6:39 PM CST
Astronomical Twilight 5:21 AM CST 7:12 PM CST
Moon 4:40 AM CST (2/18) 2:30 PM CST (2/18)
Length of Visible Light 11h 38m
Length of Day
10h 40m
Waning Crescent, 11% of the Moon is Illuminated
Feb 18
Waning Crescent
Feb 21
New
Feb 29
First Quarter
Mar 8
Full
Mar 14
Last Quarter

Hourly Weather History & Observations

Time (CST) Temp. Windchill Dew Point Humidity Pressure Visibility Wind Dir Wind Speed Gust Speed Precip Events Conditions
12:53 AM 32.0 °F 27.5 °F 23.0 °F 69% 30.12 in 10.0 mi Variable 4.6 mph - N/A   Clear
1:53 AM 30.9 °F 27.5 °F 21.0 °F 67% 30.14 in 10.0 mi WNW 3.5 mph - N/A   Clear
2:53 AM 30.0 °F 25.2 °F 21.0 °F 69% 30.15 in 10.0 mi NW 4.6 mph - N/A   Mostly Cloudy
3:53 AM 28.0 °F 24.2 °F 19.9 °F 72% 30.16 in 10.0 mi NW 3.5 mph - N/A   Partly Cloudy
4:53 AM 27.0 °F - 19.9 °F 75% 30.18 in 10.0 mi Calm Calm - N/A   Clear
5:53 AM 25.0 °F 20.7 °F 19.0 °F 78% 30.19 in 10.0 mi NW 3.5 mph - N/A   Clear
6:53 AM 25.0 °F 20.7 °F 19.0 °F 78% 30.21 in 10.0 mi NW 3.5 mph - N/A   Clear
7:53 AM 26.1 °F - 21.0 °F 81% 30.23 in 10.0 mi Calm Calm - N/A   Clear
8:53 AM 33.1 °F 27.7 °F 21.9 °F 64% 30.26 in 10.0 mi NNE 5.8 mph - N/A   Clear
9:53 AM 34.0 °F 28.0 °F 19.0 °F 54% 30.27 in 10.0 mi Variable 6.9 mph - N/A   Partly Cloudy
10:53 AM 35.1 °F - 17.1 °F 48% 30.29 in 10.0 mi Calm Calm - N/A   Clear
11:53 AM 36.0 °F - 15.1 °F 43% 30.27 in 10.0 mi Calm Calm - N/A   Clear
12:53 PM 39.0 °F 36.8 °F 15.1 °F 38% 30.23 in 10.0 mi Variable 3.5 mph - N/A   Clear
1:53 PM 39.9 °F 36.7 °F 14.0 °F 35% 30.22 in 10.0 mi NNE 4.6 mph - N/A   Clear
3:53 PM 39.9 °F - 12.9 °F 33% 30.22 in 10.0 mi Calm Calm - N/A   Clear
4:53 PM 39.0 °F - 12.9 °F 34% 30.22 in 10.0 mi Calm Calm - N/A   Clear
5:53 PM 32.0 °F - 15.1 °F 50% 30.22 in 10.0 mi Calm Calm - N/A   Clear
6:53 PM 27.0 °F - 16.0 °F 63% 30.25 in 6.0 mi Calm Calm - N/A   Haze
7:53 PM 25.0 °F - 17.1 °F 72% 30.25 in 7.0 mi Calm Calm - N/A   Clear
8:18 PM 24.8 °F - 17.6 °F 74% 30.22 in 1.8 mi Calm Calm - N/A   Haze
8:22 PM 24.8 °F - 17.6 °F 74% 30.22 in 3.0 mi Calm Calm - N/A   Haze
8:53 PM 23.0 °F - 18.0 °F 81% 30.25 in 8.0 mi Calm Calm - N/A   Clear
9:53 PM 21.9 °F - 17.1 °F 82% 30.25 in 9.0 mi Calm Calm - N/A   Clear
10:53 PM 19.0 °F - 16.0 °F 88% 30.24 in 10.0 mi Calm Calm - N/A   Clear
11:53 PM 18.0 °F - 15.1 °F 88% 30.24 in 10.0 mi Calm Calm - N/A   Clear